Location: ???????
(54.9996°N, 37.9529°E)
Time: 14:50:35
(UTC+00:00)

Cosmos 2278 Rocket - Pass Details

Date: 14 April 2024
Orbit: 839 x 846 km, 71.0° (Epoch: 18 May)

Event Time Altitude Azimuth Distance (km) Brightness Sun altitude
Rises 00:10:25 0° 325° (NW) 3,421 5.5 -17.1°
Reaches altitude 10° 00:12:53 10° 324° (NW) 2,482 4.8 -16.9°
Maximum altitude 00:18:33 70° 242° (WSW) 902 2.1 -16.4°
Drops below altitude 10° 00:24:10 10° 160° (SSE) 2,465 4.4 -15.8°
Sets 00:26:37 0° 158° (SSE) 3,396 5.1 -15.5°
